Location: 433rd Scouts Home(Lloyd Manor Park, Etobicoke )
(43.6722°N, 79.5542°W)
Time: 18:53:25
(UTC-04:00)

Nauka - Pass Details

Date: 04 October 2021
Orbit: 417 x 423 km, 51.6° (Epoch: 17 October)

Event Time Altitude Azimuth Distance (km) Brightness Sun altitude
Rises 19:44:01 0° 301° (WNW) 2,364 ? -10.0°
Reaches altitude 10° 19:46:07 10° 301° (WNW) 1,498 ? -10.4°
Maximum altitude 19:49:28 86° 217° (SW) 423 ? -11.0°
Enters shadow 19:52:10 15° 125° (SE) 1,228 ? -11.5°
